User: anonymous   Login
Location: Unspecified
(0.0000°N, 0.0000°E)
Time: 18:50:54
(UTC+00:00)
Language:

CUTE 1.7 + AOD 2 - Orbit

View from above orbital plane
View from above orbital plane
View from above satellite
View from above satellite

Ground track
Ground track

The orbit data is extracted from the following two-line orbital elements,

1 32785U 08021C   19341.52636315  .00000200  00000-0  27170-4 0  9998
2 32785  97.5589 333.2235 0014341  56.8113 303.4477 14.88385264629248
Epoch (UTC): 07 December 2019 12:37:57
Eccentricity: 0.0014341
inclination: 97.5589°
perigee height: 593 km
apogee height: 613 km
right ascension of ascending node: 333.2235°
argument of perigee: 56.8113°
revolutions per day: 14.88385264
mean anomaly at epoch: 303.4477°
orbit number at epoch: 62924

The dashed part of the orbit path shows where the satellite is in the earth's shadow,  

DLR